Location: Altenhof
(50.2418°N, 10.8789°E)
Time: 21:12:20
(UTC+00:00)

CZ-4C R/B - Pass Details

Date: 18 February 2020
Orbit: 642 x 1360 km, 63.4° (Epoch: 29 March)

Event Time Altitude Azimuth Distance (km) Brightness Sun altitude
Exits shadow 02:16:58 29° 60° (ENE) 1,536 3.9 -38.7°
Drops below altitude 10° 02:20:05 10° 48° (NE) 2,639 5.5 -38.3°
Sets 02:22:55 0° 45° (NE) 3,708 6.4 -37.9°
